Regional Weather Roundup
Issued by NWS

Home | Current Version | Previous Version | Graphics & Text | Print | Product List | Glossary On
Versions: 1 2 3 4 5 6 7 8 9 10 11 12 13 14 15 16 17 18 19 20 21 22 23 24 25 26 27 28 29 30 31 32 33 34 35 36 37 38 39 40 41 42 43 44 45 46 47 48 49 50
287
ASUS45 KBOU 270907
RWRCO

WEATHER ROUNDUP FOR COLORADO
NATIONAL WEATHER SERVICE DENVER/BOULDER CO
300 AM MDT THU APR 27 2017

NOTE: "FAIR" INDICATES FEW OR NO CLOUDS BELOW 12000 FEET WITH NO
SIGNIFICANT WEATHER AND/OR OBSTRUCTIONS TO VISIBILITY.

COZ001>005-013-030-031-271000-
...NORTHWEST COLORADO...

CITY           SKY/WX    TMP DP  RH WIND       PRES   REMARKS
CRAIG          LGT RAIN  39  34  82 CALM      29.65F
HAYDEN         MOCLDY    36  30  80 NE5       29.66F
MEEKER         CLOUDY    35  34  96 E6        29.67F WCI  30
MOUNT WERNER   NOT AVBL
STEAMBOAT SPGS CLOUDY    33  32  96 NE3       29.66F
WALDEN           N/A     34  28  80 S12       29.66F WCI  25
$$

COZ006>008-011-271000-
...WEST CENTRAL VALLEYS...

CITY           SKY/WX    TMP DP  RH WIND       PRES   REMARKS
GRAND JUNCTION MOCLDY    44  40  85 NE3       29.66F
MONTROSE       FAIR      42  33  70 SW6       29.71F
EAGLE          LGT RAIN  37  33  85 CALM      29.70F
RIFLE          CLOUDY    41  39  93 E7        29.68F
DELTA          MOCLDY    45  37  75 NE7       29.70F
NUCLA          CLOUDY    45  36  70 SE5       29.74F
$$

COZ017>023-064>068-271000-
...SOUTHWEST COLORADO...

CITY           SKY/WX    TMP DP  RH WIND       PRES   REMARKS
DURANGO        RAIN      39  37  92 SW14G21   29.76S FOG
CORTEZ         LGT RAIN  43  41  93 SE3       29.76F FOG
PAGOSA SPRINGS FLURRIES  37  35  92 CALM      29.77F
TELLURIDE      LGT SNOW  32  32 100 SE7       29.80F WCI  26
WOLF CREEK PAS SNOW      21  21 100 SW15G29   29.84S VSB 1/2 WCI   8
$$

COZ009-010-012-014-032>034-037-058>063-271000-
...CENTRAL COLORADO...

CITY           SKY/WX    TMP DP  RH WIND       PRES   REMARKS
ASPEN          MIX PCPN  33  32  96 CALM      29.69F
BUENA VISTA    LGT SNOW  35  30  84 W5        29.69F WCI  30
COPPER MTN     LGT SNOW  25  19  80 MISG      29.73F
BERTHOUD PASS  CLOUDY    18   5  57 W24       29.72F WCI   0
COTTONWOOD PAS LGT SNOW  32  30  93 SW15G21   29.70F WCI  22
GUNNISON       MIX PCPN  34  33  96 CALM      29.74F
KREMMLING      LGT SNOW  37  36  93 CALM      29.69F
LEADVILLE      LGT SNOW  26  22  84 N3        29.70F VSB 3/4
MONARCH PASS   CLOUDY    23  21  93 SW22      29.87F WCI   8
SALIDA         CLOUDY    41  28  60 W8G17     29.77F
SUNLIGHT       MIX PCPN  27  25  93 SW17G32   29.75F WCI  14
WILKERSON PASS MOCLDY    23  19  86 SW20G28   29.73F WCI   8
$$

COZ069>075-271000-
...SAN LUIS VALLEY/SANGRE DE CRISTO MOUNTAINS...

CITY           SKY/WX    TMP DP  RH WIND       PRES   REMARKS
ALAMOSA        MOCLDY    40  26  57 S20       29.70F
LA VETA PASS   FAIR      28  23  80 SW25G40   29.82F WCI  14
SAGUACHE       CLOUDY    36  23  60 CALM      29.72F
$$

COZ035-036-038>040-271000-
...NORTHERN COLORADO FRONT RANGE...

CITY           SKY/WX    TMP DP  RH WIND       PRES   REMARKS
DENVER INTL AP MOCLDY    35  31  85 NE7       29.60F WCI  29
DMNS CITY PARK   N/A     40  33  77 CALM      29.60F
AURORA         MOCLDY    39  34  81 SW7       29.60F
FRONT RANGE AP FAIR      37  32  81 NE6       29.62F
ERIE MUNI ARPT FAIR      39  36  88 NW3       29.61F
BOULDER MUN AP FAIR      41  36  81 CALM      29.61F
CENTENNIAL     FAIR      39  33  79 N5        29.61F
BROOMFIELD     FAIR      41  36  81 NW13      29.61F
FORT COLLINS   FAIR      39  34  82 CALM      29.62F
LONGMONT       FAIR      42  37  84 N5        29.63F
$$

COZ041-046-047-076>085-087-088-271000-
...PIKES PEAK/PALMER DIVIDE AND SOUTHERN FOOTHILLS...

CITY           SKY/WX    TMP DP  RH WIND       PRES   REMARKS
COLO. SPRINGS  MOCLDY    40  33  76 E7        29.65F
A. F. ACADEMY  FAIR      31  30  94 N6        29.64F WCI  26
SCHRIEVER AFB  FAIR      36  32  87 NE7       29.64F
ELLICOTT       NOT AVBL
FALCON         FAIR      36  32  87 CALM      29.65F
FORT CARSON    FAIR      39  32  76 E6        29.63F
LIMON          FAIR      31  31 100 S5        29.64F WCI  26
MONUMENT HILL  FAIR      32  30  93 S9        29.65F WCI  24
TRINIDAD       FAIR      43  31  62 W13       29.62F
$$

COZ042>045-048>051-090-091-271000-
...NORTHEAST COLORADO...

CITY           SKY/WX    TMP DP  RH WIND       PRES   REMARKS
GREELEY ARPT   FAIR      40  37  89 NE3       29.62F
AKRON          CLOUDY    40  36  86 SE7       29.63F
BURLINGTON     NOT AVBL
WRAY           NOT AVBL
STERLING       MOCLDY    41  41 100 CALM      29.60F
HOLYOKE        FAIR      39  32  75 SE9       29.64F
FORT MORGAN    FAIR      38  36  90 E3        29.62F
$$

COZ086-089-092>099-271000-
...SOUTHEAST COLORADO...

CITY           SKY/WX    TMP DP  RH WIND       PRES   REMARKS
PUEBLO         FAIR      41  37  86 NW3       29.61F
LA JUNTA       FAIR      42  37  82 E5        29.61F
LAMAR          FAIR      39  35  86 CALM      29.63F
SPRINGFIELD      N/A     42  36  79 SW9       29.67F
$$




USA.gov is the U.S. government's official web portal to all federal, state and local government web resources and services.